Terminal Aerodrome Forecast
Issued by NWS

Home | Current Version | Previous Version | Text Only | Print | Product List | Glossary On
Versions: 1 2 3 4 5 6 7 8 9 10 11 12 13 14 15 16 17 18 19 20 21 22 23 24 25 26 27 28 29 30 31 32 33 34
000
FTUS45 KREV 101720
TAFMMH
TAF
KMMH 101720Z 1018/1118 VRB03KT P6SM SCT250
     FM102200 11007KT P6SM FEW120 BKN180
     FM110400 27006KT P6SM VCSH BKN060 OVC090=

USA.gov is the U.S. government's official web portal to all federal, state and local government web resources and services.